Tracking 19831 objects as of 23-Aug-2019
HD Live streaming from Space Station
objects crossing your sky now

COSMOS 2497

Track COSMOS 2497 now!
10-day predictions
COSMOS 2497 is classified as:


NORAD ID: 39762
Int'l Code: 2014-028B
Perigee: 1,484.5 km
Apogee: 1,518.5 km
Inclination: 82.4 °
Period: 115.9 minutes
Semi major axis: 7872 km
RCS: Unknown
Launch date: May 23, 2014
Source: Commonwealth of Independent States (former USSR) (CIS)
Launch site: PLESETSK MISSILE AND SPACE COMPLEX (PKMTR)

COSMOS 2497 is part of the Russian military's Rodnik, or Strela 3M, system designed to relay messages between users posted in remote locations.
aabbcc
Your satellite tracking list
Your tracking list is empty




NASA's NSSDC Master Catalog

Two Line Element Set (TLE):
1 39762U 14028B   19235.45361964  .00000003  00000-0 -51255-4 0  9996
2 39762  82.4466 228.9508 0021618  94.8137 265.5411 12.42897595238293
Source of the keplerian elements: AFSPC